Location: Asheville, NC
(35.6000°N, 82.5500°W)
Time: 20:38:47
(UTC-05:00)

Tiangong 2 - Visible Passes

Search period start: 15 December 2017 00:00
Search period end: 25 December 2017 00:00
Orbit: 386 x 390 km, 42.8° (Epoch: 15 December)

Date Brightness Start Highest point End Pass type
(mag) Time Alt. Az. Time Alt. Az. Time Alt. Az.
18 Dec 3.7 19:15:01 10° SSW 19:15:47 14° S 19:15:47 14° S visible
19 Dec 3.5 18:18:05 10° SSE 18:19:17 12° SE 18:20:21 10° ESE visible
19 Dec 4.6 19:52:32 10° WSW 19:52:39 11° WSW 19:52:39 11° WSW visible
20 Dec 1.6 18:54:15 10° SW 18:57:09 44° SSE 18:57:09 44° SSE visible
21 Dec 2.7 17:56:20 10° SSW 17:58:57 23° SE 18:01:33 10° E visible
21 Dec 3.6 19:32:31 10° W 19:33:53 22° W 19:33:53 22° W visible
22 Dec 1.0 18:33:56 10° WSW 18:37:06 88° NNW 18:38:15 36° ENE visible
23 Dec 2.7 19:12:38 10° W 19:14:51 29° NW 19:14:51 29° NW visible
24 Dec 1.6 18:13:51 10° W 18:16:56 48° NNW 18:19:07 17° NE visible
